Location: Brede
(50.9167°N, 0.6000°E)
Time: 17:06:58
(UTC+00:00)

Cosmos 1328 - Pass Details

Date: 08 August 2020
Orbit: 537 x 547 km, 82.5° (Epoch: 23 September)

Event Time Altitude Azimuth Distance (km) Brightness Sun altitude
Rises 03:44:51 0° 348° (NNW) 2,722 7.7 -7.5°
Reaches altitude 10° 03:47:01 10° 347° (NNW) 1,826 6.8 -7.2°
Maximum altitude 03:51:02 77° 262° (W) 567 3.8 -6.7°
Drops below altitude 10° 03:55:01 10° 176° (S) 1,815 6.2 -6.2°
Sets 03:57:10 0° 175° (S) 2,704 7.1 -5.9°
